Regional Weather Roundup
Issued by NWS

Home | Current Version | Previous Version | Text Only | Print | Product List | Glossary Off
Versions: 1 2 3 4 5 6 7 8 9 10 11 12 13 14 15 16 17 18 19 20 21 22 23 24 25 26 27 28 29 30 31 32 33 34 35 36 37 38 39 40 41 42 43 44 45 46 47 48 49 50

000
ASUS43 KDMX 300404
RWRIA

WEATHER ROUNDUP FOR IOWA
NATIONAL WEATHER SERVICE DES MOINES IA
  ISSUED BY NWS QUAD CITIES IA IL
1000 PM CST THU JAN 29 2015

NOTE: "FAIR" INDICATES FEW OR NO CLOUDS BELOW 12,000 FEET WITH NO
SIGNIFICANT WEATHER AND/OR OBSTRUCTIONS TO VISIBILITY.

* - THESE STATIONS ARE NOT NWS STATIONS...THUS NOT UNDER NWS
QUALITY CONTROL.  THEY ALSO DO NOT REPORT WEATHER SUCH
AS PRECIPITATION OR FOG.

IAZ001>003-012>014-020>022-031>034-043>046-300500-
   NORTHWEST IOWA

CITY           SKY/WX    TMP DP  RH WIND       PRES   REMARKS
CARROLL *      CLEAR     25  21  86 N12       30.51S WCI  14
CHEROKEE *     CLEAR     25  21  85 N6        30.53R WCI  18
DENNISON *     CLOUDY    28  21  74 N13       30.51R WCI  18
LE MARS *      CLOUDY    27  21  80 N9        30.55S WCI  17
ORANGE CITY *  CLOUDY    27  19  74 NW6       30.52S WCI  20
SIOUX CITY     CLOUDY    30  21  69 N9        30.54S WCI  22
SPENCER        CLEAR     21  15  78 N14       30.53R WCI   8
$$

IAZ055>058-069>071-079>083-090>094-300500-
   SOUTHWEST IOWA

CITY           SKY/WX    TMP DP  RH WIND       PRES   REMARKS
ATLANTIC *     CLOUDY    30  23  74 N10       30.52R WCI  21
AUDUBON *      CLEAR     27  21  80 NW5       30.51S WCI  21
CLARINDA *     CLOUDY    32  23  69 NW13      30.54R WCI  22
COUNCIL BLFS * CLOUDY    30  23  74 N10G16    30.52R WCI  21
CRESTON *      CLOUDY    30  23  74 N13       30.49S WCI  20
HARLAN *       CLOUDY    30  23  74 N15       30.55S WCI  19
LAMONI         CLOUDY    31  21  66 NW20      30.48R WCI  19
$$

IAZ047>049-059>061-072>074-084-300500-
   CENTRAL IOWA

CITY           SKY/WX    TMP DP  RH WIND       PRES   REMARKS
AMES           CLEAR     24  17  74 N17G24    30.49R WCI  11
ANKENY *       CLEAR     27  19  74 N13G20    30.49S WCI  16
BOONE *        CLEAR     25  19  80 NW17      30.48R WCI  11
CHARITON *     PTCLDY    28  21  74 NW15G24   30.48R WCI  17
DES MOINES     CLEAR     28  19  69 N14       30.50R WCI  17
GRINNELL *     CLOUDY    26  20  79 NW18      30.46R WCI  12
KNOXVILLE *    PTCLDY    27  19  74 N17G23    30.46R WCI  14
MARSHALLTOWN   MOCLDY    24  18  77 NW15      30.46R WCI  11
PERRY *          N/A     26  22  85 NW10      30.51R WCI  16
$$

IAZ004>006-015-016-023>025-035-036-300500-
   NORTH CENTRAL IOWA

CITY           SKY/WX    TMP DP  RH WIND       PRES   REMARKS
ALGONA *       CLEAR     19  16  86 N13G21    30.51R WCI   7
CLARION *      MOCLDY    21  18  86 N15       30.49R WCI   8
ESTHERVILLE    CLEAR     18  13  80 NW17      30.51R WCI   3
FORT DODGE *   PTCLDY    23  16  74 NW6       30.51R WCI  16
MASON CITY     CLEAR     19  13  77 NW16      30.48R WCI   4
WEBSTER CITY * PTCLDY    23  23 100 NW16      30.48R WCI  10
IOWA FALLS *   MOCLDY    23  17  79 NW18      30.48R WCI   8
$$

IAZ007>011-017>019-026>030-037>042-050>054-066-300500-
   NORTHEAST IOWA

CITY           SKY/WX    TMP DP  RH WIND       PRES   REMARKS
CEDAR RAPIDS   CLOUDY    26  18  71 NW21G29   30.41R WCI  12
CHARLES CITY * CLOUDY    23  16  74 NW18      30.45R WCI   9
CLINTON *      MOCLDY    28  18  64 NW21G26   30.39R WCI  15
DECORAH *      CLOUDY    23  14  68 NW14G23   30.40R WCI  11
DUBUQUE        CLOUDY    26  15  63 N23G29    30.36R WCI  11
MONTICELLO *   CLOUDY    27  19  74 N13       30.40R WCI  16
OELWEIN *      MOCLDY    23  16  74 NW17G28   30.43R WCI   9
WATERLOO       CLOUDY    25  16  68 N21       30.45R WCI  11
$$

IAZ064-065-067-068-078-300500-
   EAST CENTRAL IOWA

CITY           SKY/WX    TMP DP  RH WIND       PRES   REMARKS
DAVENPORT      CLOUDY    29  19  66 NW20G26   30.38R WCI  16
IOWA CITY      CLOUDY    28  19  69 NW14      30.44R WCI  17
MT. PLEASANT * CLOUDY    28  20  71 NW10      30.43S WCI  19
MUSCATINE *    CLOUDY    30  21  69 NW20G28   30.43R WCI  18
QUAD CITIES    CLOUDY    30  19  63 NW21G31   30.38R WCI  17
$$

IAZ062-063-075>077-085>089-095>099-300500-
   SOUTHEAST IOWA

CITY           SKY/WX    TMP DP  RH WIND       PRES   REMARKS
BURLINGTON     CLOUDY    30  21  69 N17G31    30.41R WCI  18
FAIRFIELD *    CLOUDY    28  21  74 N14G21    30.44S WCI  17
FORT MADISON * CLOUDY    28  21  74 NW18G26   30.43R WCI  16
KEOKUK *       CLOUDY    30  21  69 NW13      30.43R WCI  20
OTTUMWA        MOCLDY    28  20  71 NW20G25   30.46R WCI  15
WASHINGTON *   CLOUDY    28  23  80 NW17G24   30.44R WCI  16
$$

ABBREVIATIONS USED IN REMARKS
   TC - TEMPERATURES IN CELSIUS
  WCI - WIND CHILL INDEX
   HX - HEAT INDEX
  VSB - VISIBILITY
$$


USA.gov is the U.S. government's official web portal to all federal, state and local government web resources and services.